Wind_Speed
49 46 44 42 39 39 40 41 44 44 44 45 47 48 47 47 44 40 39 38 36 36 37 37 37 37 37 36 36 36 37 38 38 40 40 40 39 38 35 33 33 32 30 30 30 29 29 29 29 27 25 25 25 25 26 27 27 25 22 21 21 23 26 27 24 21 19 16 15 19 21 19 19 20 19 19 19 17 17 17 15 13 13 14 12
49 45 41 40 39 38 39 41 44 45 46 46 47 48 48 48 46 42 41 40 37 37 38 38 38 39 38 37 36 36 38 38 39 40 41 41 40 40 38 36 35 34 32 32 32 31 30 30 29 27 25 25 22 20 21 23 24 25 24 23 23 24 26 27 26 23 20 16 16 18 20 19 19 20 20 19 18 18 18 16 14 13 14 13 11
43 42 40 39 38 38 38 40 43 45 47 47 48 49 49 48 47 44 43 42 40 39 39 40 40 40 39 38 37 37 38 39 39 39 40 41 42 42 40 38 37 36 35 34 33 32 31 31 30 27 26 25 21 18 19 21 23 24 25 25 26 26 27 27 27 25 23 20 18 20 21 21 21 20 20 19 18 19 17 13 12 13 13 11 11
34 36 38 38 37 38 39 39 42 45 47 48 48 49 50 49 48 47 46 44 43 41 41 42 41 41 40 39 38 38 39 39 40 40 40 41 42 43 42 40 38 38 37 36 35 34 33 32 29 27 26 25 22 20 21 24 24 25 25 27 27 27 28 28 27 27 25 23 22 22 22 22 21 20 20 20 19 17 13 11 12 13 11 10 11
31 33 35 37 36 36 37 39 41 43 46 48 49 49 49 50 49 49 48 47 45 44 43 44 43 43 42 40 39 40 40 40 41 42 41 40 41 43 43 42 40 39 39 37 36 35 34 32 28 26 26 26 25 24 25 26 27 27 28 29 29 28 28 28 27 26 26 25 24 24 23 22 21 20 19 19 19 16 12 11 11 11 10 9 10
34 35 36 38 37 36 36 38 41 43 45 47 49 49 50 50 50 50 50 49 48 46 46 46 46 46 44 41 40 40 40 41 41 42 43 41 41 42 43 43 41 40 40 39 37 36 34 31 28 26 27 28 28 28 28 29 30 31 31 32 32 29 27 27 26 25 25 25 25 25 24 23 22 20 18 17 17 15 12 13 13 12 11 9 9
35 37 39 40 39 38 37 37 38 40 43 45 48 50 51 51 50 50 50 50 49 48 48 48 48 48 46 43 41 41 40 40 41 42 43 43 42 42 43 44 43 41 41 40 38 36 34 31 29 27 27 28 30 32 32 32 32 32 32 32 31 26 22 24 26 25 24 23 23 24 23 22 22 19 16 16 17 15 14 16 16 14 13 12 12
37 40 41 42 42 41 40 38 38 39 41 42 45 48 51 51 50 50 50 51 51 50 49 49 49 49 47 44 43 42 41 40 40 41 43 44 43 42 43 44 44 43 42 40 39 36 34 32 30 28 28 27 27 30 32 32 31 30 29 28 26 22 21 24 25 26 25 24 24 24 22 21 20 19 16 16 18 18 16 17 16 15 15 15 14
31 36 39 43 45 46 44 42 41 42 43 44 45 47 50 51 50 50 51 51 52 51 50 50 51 50 49 46 44 44 43 42 41 41 42 44 44 44 43 44 44 44 42 41 39 36 35 33 31 30 29 27 27 28 28 26 26 26 26 26 25 24 24 25 25 26 27 26 24 24 22 20 20 20 19 18 18 18 17 17 17 17 15 14 14
23 28 33 37 41 45 48 47 45 46 47 48 49 49 49 50 50 51 52 52 52 52 51 51 51 52 50 48 46 46 46 44 43 43 42 43 45 45 44 44 44 45 44 41 39 38 36 34 33 32 30 28 27 28 26 24 23 24 25 25 26 26 26 27 27 27 26 26 25 24 23 22 21 21 20 18 17 17 17 17 17 15 13 13 14
25 26 30 33 35 39 45 48 48 47 47 49 50 50 49 48 49 52 53 54 54 53 53 53 53 53 52 50 49 49 48 46 45 45 44 44 45 46 46 44 44 44 45 43 41 39 37 35 35 35 33 29 28 27 25 24 24 24 25 25 25 26 27 27 27 27 26 26 25 25 25 24 23 22 19 17 15 15 16 16 15 14 13 14 14
29 29 32 34 35 37 41 46 49 47 46 46 48 49 49 48 49 52 54 55 55 54 54 54 55 55 54 52 52 52 50 48 47 47 46 46 47 47 47 45 44 44 46 44 43 40 38 37 37 36 34 30 28 27 26 25 25 25 25 25 25 26 27 27 27 26 26 25 25 25 24 24 23 22 19 16 15 15 16 15 14 14 14 13 12
25 29 32 34 38 41 42 45 49 49 48 47 48 49 49 49 50 52 54 55 56 56 56 56 56 56 55 54 55 54 53 50 49 48 48 48 49 49 49 47 44 44 46 45 43 42 39 38 38 37 34 31 29 28 27 27 27 26 25 24 25 26 27 27 27 26 24 24 24 23 23 23 23 21 19 17 16 16 16 15 15 16 14 12 11
22 25 29 30 34 42 47 48 50 51 50 50 50 50 51 51 51 52 54 55 56 57 57 57 56 56 56 56 56 57 55 52 50 50 50 51 51 50 50 48 44 42 44 44 43 43 41 39 38 36 34 31 30 29 28 28 28 27 25 25 25 26 27 27 27 26 24 23 22 22 22 22 21 20 19 18 18 18 17 16 16 16 14 12 12
23 25 28 28 30 36 45 49 51 52 53 52 52 52 52 52 52 53 54 55 56 58 58 58 58 57 57 58 58 57 56 53 51 51 50 51 51 50 50 49 45 43 43 43 43 43 42 39 37 36 34 31 29 29 29 29 28 27 26 26 26 26 26 26 26 25 24 23 23 22 22 21 21 21 20 19 18 18 18 16 15 14 14 14 13
28 30 29 28 29 31 35 41 46 50 52 53 54 53 53 53 53 53 54 55 56 58 59 59 59 58 58 58 59 58 57 55 53 51 51 51 50 50 50 50 48 45 44 44 43 43 42 40 38 36 34 30 29 29 30 29 28 28 27 27 26 26 26 26 25 25 24 24 24 23 22 23 23 22 22 21 20 19 18 16 15 14 14 13 12
34 35 31 27 28 29 31 34 40 46 49 51 53 55 55 54 53 53 54 55 56 57 59 59 59 59 59 59 60 60 59 57 55 53 52 52 52 51 52 52 50 48 47 46 44 43 43 41 39 38 35 31 29 29 30 29 28 28 29 28 28 28 27 27 26 25 25 26 26 24 23 25 25 23 22 21 21 20 18 16 16 14 13 12 11
37 39 35 30 28 29 30 32 35 41 48 51 53 54 55 55 54 54 54 56 57 58 59 59 60 60 61 61 61 61 60 59 57 55 53 54 54 53 53 53 52 50 49 48 46 44 43 41 39 39 37 33 29 28 29 29 27 28 30 30 30 30 29 28 27 26 26 27 27 26 25 26 27 25 23 22 21 21 19 17 16 15 13 12 12
35 36 34 32 31 29 30 32 33 36 44 51 52 53 56 56 55 54 54 55 57 58 58 59 60 60 61 61 61 61 61 60 58 56 55 55 54 54 53 53 52 51 51 50 48 45 44 41 40 40 38 34 30 28 28 29 27 28 29 31 32 31 29 28 27 26 26 27 27 27 27 28 29 28 26 24 23 22 20 18 16 15 14 13 12
31 31 30 30 30 30 29 31 33 34 38 46 50 54 58 59 57 56 55 55 57 58 58 58 59 60 60 61 61 60 60 61 60 58 56 56 55 55 55 54 54 53 52 52 50 47 45 43 42 42 39 34 30 28 28 28 27 27 29 32 32 29 27 27 27 25 25 25 25 26 27 29 30 29 27 25 24 22 20 18 17 15 14 13 12
29 30 29 28 29 30 30 30 33 34 35 41 48 53 56 55 55 56 55 55 55 56 56 56 57 59 59 59 60 60 61 62 62 60 58 57 56 56 57 56 55 54 53 53 51 50 48 45 45 45 40 33 29 28 27 27 26 26 28 29 27 25 25 26 26 25 25 25 24 25 27 29 30 29 27 25 24 22 20 19 17 16 15 14 13
30 31 31 30 30 30 31 31 32 33 34 37 44 50 52 51 51 53 54 55 55 55 54 53 54 57 59 59 59 60 61 63 64 62 59 57 57 57 58 58 56 54 54 53 52 51 50 47 46 46 41 32 29 27 26 26 27 27 27 26 24 24 25 25 24 25 26 26 25 26 28 29 29 28 26 25 23 22 20 18 17 16 16 14 12
30 30 30 30 31 30 29 29 30 33 35 36 39 44 48 49 52 54 54 54 56 57 57 56 54 54 56 58 59 59 61 63 64 63 61 58 57 58 58 58 56 55 55 55 53 52 51 47 47 46 40 32 28 26 25 26 27 26 25 24 24 25 26 25 25 26 27 27 26 26 27 28 27 27 25 24 22 20 19 17 17 16 14 11 10
30 29 27 27 29 29 29 29 29 31 33 35 36 40 45 48 52 56 55 53 54 55 55 56 56 54 53 55 57 58 60 63 64 63 61 59 58 58 57 57 56 55 55 55 53 52 50 48 47 45 38 32 29 27 26 27 26 25 24 24 25 26 27 27 27 28 28 28 27 27 26 26 25 24 23 21 19 17 15 14 14 13 11 8 8
28 27 25 26 29 31 31 31 31 30 31 33 34 37 44 48 49 50 52 53 54 54 54 55 57 56 54 53 54 56 58 61 62 62 60 59 58 56 56 56 55 54 54 54 52 51 50 47 46 43 38 33 30 29 29 28 26 24 23 24 26 29 29 29 29 29 29 28 27 26 26 25 23 22 19 17 17 15 14 12 11 10 9 7 8
26 26 27 28 31 32 31 31 31 30 30 33 34 33 38 43 43 42 45 49 50 49 50 53 56 56 56 54 53 55 57 59 61 61 59 57 56 55 54 54 53 52 52 52 50 50 49 46 45 42 39 35 33 32 31 29 26 25 25 25 27 29 30 29 29 30 29 27 25 24 24 23 21 19 17 17 17 15 13 11 10 10 9 9 9
27 29 31 31 31 31 30 31 32 31 31 32 34 34 36 38 39 39 42 46 47 44 44 48 51 53 55 55 53 53 55 57 59 60 59 57 55 54 53 53 53 52 51 50 50 50 49 47 44 42 39 37 34 33 32 30 29 28 28 27 27 28 29 28 28 27 26 24 23 22 21 21 19 17 17 18 17 14 12 12 12 11 10 9 11
25 27 29 28 28 29 29 31 31 30 30 30 31 35 39 41 40 39 39 42 46 46 46 49 52 52 53 55 54 53 54 57 59 61 61 60 56 54 53 54 53 52 51 50 50 50 49 46 44 42 40 37 35 34 34 33 32 31 31 30 28 28 28 27 26 26 25 23 22 21 20 20 18 16 17 18 17 15 14 13 13 12 11 11 13
21 22 23 24 25 25 26 27 27 27 27 28 29 32 37 40 41 41 41 41 42 42 43 49 56 57 56 56 56 54 55 58 61 62 62 61 58 56 54 53 52 51 51 51 51 49 47 46 45 43 41 39 37 37 37 36 36 35 33 31 30 29 29 30 29 29 27 26 24 23 21 20 18 16 17 18 18 18 18 17 16 15 14 15 15
15 15 17 19 20 21 21 22 23 24 24 24 26 28 30 33 36 38 39 38 37 36 37 44 52 56 57 58 59 58 57 59 61 61 60 58 56 54 52 48 47 48 50 51 51 50 48 48 47 45 43 41 40 40 39 40 40 39 36 34 33 32 32 32 31 30 29 27 26 25 23 20 18 18 20 20 19 20 20 20 19 17 17 16 15
11 11 13 16 18 18 18 19 20 21 20 19 22 25 27 29 32 34 36 35 31 31 35 41 48 53 54 54 55 57 58 59 59 59 58 54 50 47 45 43 42 46 49 51 52 51 50 50 49 47 45 44 42 42 42 43 42 39 36 36 35 34 33 33 32 31 30 30 28 27 25 22 20 20 22 22 21 20 20 19 18 17 16 15 15
9 9 11 16 18 19 19 18 18 19 19 18 20 24 27 30 32 33 36 37 35 33 37 41 48 54 55 53 52 54 57 58 57 58 56 51 45 42 41 42 43 46 50 53 54 53 53 53 52 50 48 46 45 44 44 44 43 39 36 37 38 37 34 33 32 31 31 31 31 29 27 25 23 22 23 23 23 23 21 20 19 19 17 15 15
9 10 11 15 17 18 19 18 18 19 19 18 18 21 24 28 32 34 38 42 41 37 36 38 42 48 54 57 57 57 58 58 56 55 52 49 45 42 41 42 44 47 51 56 57 56 56 56 54 53 51 49 48 47 47 46 43 38 35 37 39 38 35 33 32 30 31 31 31 31 29 27 26 26 25 24 24 23 22 21 20 19 18 17 17
9 12 13 14 15 16 17 17 17 18 18 17 16 18 20 23 26 30 34 39 40 40 39 40 42 45 52 58 60 59 59 58 57 54 49 46 45 45 44 43 44 46 51 57 59 59 58 57 56 56 54 52 51 50 50 47 42 37 34 36 38 37 35 34 32 31 30 31 31 31 31 29 29 29 27 26 25 24 22 22 22 21 20 20 20
10 10 11 12 15 16 18 18 16 15 16 15 14 15 17 20 22 25 28 33 38 40 42 44 45 48 54 59 60 58 58 57 56 53 48 45 47 49 48 45 45 48 53 57 60 60 60 59 58 57 55 54 52 52 51 47 41 37 35 35 37 38 36 35 33 31 30 31 31 31 31 30 30 29 27 26 27 26 24 24 25 23 21 20 20
13 12 9 9 11 13 15 16 14 14 15 15 14 15 15 17 21 23 24 28 34 37 38 41 44 47 52 55 55 54 54 55 55 53 50 48 50 50 47 44 46 50 55 58 59 58 58 58 57 56 55 54 52 52 50 45 38 35 34 35 36 37 36 34 32 31 31 31 31 30 30 30 30 29 26 26 28 29 27 26 26 25 22 21 21
16 14 11 9 9 10 12 12 12 13 13 13 14 15 14 13 17 20 22 28 33 34 33 35 38 42 47 50 51 50 51 51 52 52 50 49 47 46 44 42 43 47 52 56 58 57 57 56 55 54 53 52 51 51 47 40 34 33 33 33 34 35 34 32 30 30 31 31 30 30 29 28 27 26 24 24 27 28 28 28 28 27 26 25 25
19 16 14 11 10 10 11 11 11 10 9 9 12 13 10 8 13 18 22 26 27 26 26 28 32 37 43 46 47 46 46 44 44 45 45 43 41 40 40 40 41 43 48 52 55 56 56 55 54 54 53 52 51 49 43 36 34 35 33 32 33 33 31 29 28 28 28 28 28 28 28 27 25 24 23 23 24 26 28 28 28 27 27 26 25
23 21 18 16 15 13 11 11 10 8 5 5 7 8 6 5 9 14 19 21 18 14 16 21 26 34 40 43 44 45 45 44 42 42 41 40 37 36 37 39 40 43 46 50 53 55 54 54 54 53 52 51 51 48 41 36 36 36 33 32 32 31 29 29 28 27 26 26 27 27 27 27 26 25 24 23 22 23 27 29 29 28 27 24 20
25 24 23 22 21 18 15 12 10 7 5 4 4 5 5 5 6 8 13 15 11 6 7 12 19 26 34 39 42 44 44 43 41 41 40 38 35 34 35 37 39 42 45 49 52 52 51 51 52 51 51 52 51 47 43 41 39 36 33 32 31 29 29 29 28 26 25 25 26 27 27 26 26 25 24 23 20 19 23 27 27 25 23 19 16
24 23 23 24 24 22 18 15 12 8 5 4 4 4 4 4 4 5 7 7 5 2 3 7 13 20 28 33 34 35 35 34 35 35 34 32 31 32 34 35 35 37 40 44 47 47 47 48 49 50 51 52 50 48 46 43 38 34 33 32 30 29 30 28 26 25 24 23 24 26 26 25 25 25 24 22 18 15 17 21 22 21 20 17 16
22 23 23 24 25 24 21 18 15 11 7 5 4 3 3 3 3 2 2 2 2 2 4 6 10 16 21 23 25 27 29 30 30 31 29 27 28 31 33 33 33 33 35 37 40 42 44 46 48 49 50 51 50 49 47 42 36 34 34 33 31 30 30 28 26 25 25 24 24 24 24 24 25 25 24 21 18 15 14 16 18 19 19 18 17
22 22 23 24 25 25 24 22 19 17 13 10 7 5 3 2 1 0 1 3 3 4 5 7 9 11 13 14 18 23 27 29 29 29 29 29 29 30 32 33 33 33 33 35 37 40 43 45 47 48 50 51 50 48 44 39 36 36 35 33 31 31 30 28 27 27 26 25 25 24 23 23 25 26 25 23 20 17 15 15 17 18 19 19 18
20 20 22 23 24 24 23 22 21 20 18 16 12 9 6 5 3 3 3 3 4 4 5 6 7 8 10 13 18 23 28 30 29 27 26 26 27 28 30 31 32 33 35 37 40 43 45 46 47 48 48 47 46 44 39 36 35 33 32 31 32 32 32 31 30 29 28 27 27 26 24 23 24 26 26 24 21 19 17 16 17 18 19 19 18
18 18 21 23 24 24 23 22 21 20 19 18 17 14 12 10 8 6 5 4 4 3 3 5 5 6 8 11 15 19 23 25 26 25 25 24 25 27 29 30 32 34 36 38 41 43 43 44 46 46 45 43 42 39 36 34 31 29 28 30 32 33 32 32 30 28 28 28 28 28 26 24 24 24 25 23 21 19 18 17 18 19 19 19 17
15 15 17 20 22 24 24 23 22 21 21 20 19 19 17 15 13 10 8 7 5 4 3 3 4 6 7 8 9 12 15 18 21 23 24 24 25 27 29 31 33 34 36 37 38 40 41 43 45 44 42 41 39 36 34 32 30 27 27 28 29 28 28 27 27 27 27 27 27 26 25 24 23 24 23 22 21 20 19 19 19 19 19 18 17
13 12 12 14 17 20 23 23 22 22 22 22 21 21 20 18 17 15 13 11 9 6 4 3 2 2 3 4 6 8 10 13 16 18 20 22 24 26 28 30 31 33 33 33 34 35 37 40 41 40 40 40 38 34 32 31 30 29 28 28 27 26 25 25 25 26 25 25 25 24 22 21 22 23 22 21 21 21 20 20 20 20 19 18 18
12 10 11 12 14 16 20 22 22 22 23 23 23 22 21 20 19 18 16 15 14 11 9 8 6 5 3 2 3 5 7 10 12 14 16 17 19 21 23 25 26 27 27 27 27 28 31 34 36 37 37 37 37 35 33 31 31 31 30 28 28 28 26 24 24 24 25 25 24 22 19 18 18 19 20 20 21 21 20 20 20 20 20 20 20
13 10 10 12 12 14 16 18 20 21 21 22 23 24 23 22 21 20 19 19 18 16 14 13 12 10 8 5 2 2 2 4 5 7 10 11 11 13 16 18 20 21 21 21 21 23 26 31 35 37 35 34 35 37 37 34 32 31 30 28 29 30 28 24 21 21 22 23 22 20 18 18 17 18 19 20 20 21 21 22 22 21 21 21 22
12 10 10 11 12 13 14 15 17 18 19 21 23 24 24 24 23 21 20 20 19 17 15 14 14 14 12 9 6 4 3 3 4 5 5 6 7 10 13 14 15 15 16 18 20 21 23 28 33 36 35 33 33 36 37 35 32 31 30 29 28 27 26 23 19 18 18 20 21 20 20 19 18 18 19 19 19 20 22 23 24 24 23 23 24
10 9 9 11 13 13 14 15 17 18 19 21 23 24 25 24 23 22 20 19 18 16 15 13 13 13 12 11 9 9 8 9 9 9 9 9 10 11 12 13 14 14 16 19 20 21 23 27 30 30 31 30 30 31 32 32 29 28 27 26 23 21 21 19 18 18 19 20 21 21 21 20 19 19 19 18 17 17 18 20 23 25 25 25 24
Wind_Direction
215 215 217 219 221 223 226 228 230 231 230 226 223 223 223 224 225 226 227 228 229 230 232 233 234 232 230 230 232 232 231 230 229 228 227 227 227 228 230 231 231 231 230 230 231 232 233 234 235 238 242 242 240 238 238 241 242 237 230 229 233 236 237 238 244 251 251 251 243 229 226 231 235 238 242 249 254 259 272 280 281 291 300 297 295
213 215 217 219 222 225 226 228 229 229 229 227 223 222 222 224 225 226 227 229 231 232 234 234 234 233 232 231 230 231 231 230 229 227 227 226 226 227 229 230 231 230 229 230 232 233 234 236 238 242 242 237 233 232 232 232 233 231 229 231 232 231 231 234 241 249 250 245 235 225 223 227 232 236 242 249 255 265 275 280 288 298 298 292 299
214 216 218 221 224 226 227 228 229 228 227 226 224 222 222 223 225 226 228 230 231 234 235 235 235 234 232 231 229 228 229 230 228 227 227 226 226 226 229 230 229 229 230 231 233 234 236 238 242 243 237 229 226 227 227 227 227 229 233 237 238 235 234 236 241 247 249 242 233 228 228 229 233 241 248 253 258 266 273 280 290 296 294 292 301
218 221 221 223 226 226 227 229 229 228 227 226 225 224 223 223 224 226 229 230 231 233 234 234 234 234 232 231 229 227 227 228 228 228 228 228 227 227 229 230 230 230 232 233 234 235 237 240 243 242 234 228 225 224 228 232 233 234 237 240 241 241 240 240 244 247 247 242 238 236 236 237 241 246 251 257 262 264 266 275 284 291 296 297 299
226 230 228 226 225 226 227 228 229 229 227 226 226 225 225 224 224 226 227 228 230 232 233 232 233 234 233 231 229 227 226 226 227 228 230 230 229 229 230 230 230 231 233 234 235 237 239 242 241 238 233 230 227 225 227 233 236 239 240 240 242 245 245 245 245 243 240 240 241 240 239 240 240 240 247 255 258 256 261 269 274 280 287 288 292
231 233 231 228 226 226 227 228 229 230 228 227 227 226 227 226 225 225 226 226 228 230 231 232 233 234 233 231 229 227 226 225 227 229 231 231 231 231 231 231 230 232 233 235 235 237 241 242 238 233 230 228 228 228 228 231 235 240 242 243 245 246 243 239 236 234 235 238 241 242 242 240 237 237 244 249 247 246 256 262 263 269 273 271 278
227 227 228 229 228 227 228 230 231 230 230 229 227 227 228 227 226 225 225 226 227 228 229 231 234 234 232 231 230 228 225 224 225 228 230 232 232 231 231 231 230 230 233 234 235 237 239 239 237 234 231 228 227 227 229 231 235 240 243 244 244 242 233 227 226 229 233 236 237 239 239 238 239 240 242 240 236 235 244 253 261 272 274 270 272
223 224 226 229 230 231 233 233 232 231 232 231 230 229 228 227 227 226 225 225 226 227 229 231 232 231 230 230 231 229 226 223 224 226 229 231 232 230 230 230 229 229 231 232 234 236 237 237 238 238 237 235 231 228 229 232 235 239 242 242 241 237 229 225 225 228 232 235 236 237 238 238 238 239 236 231 229 231 239 248 256 265 266 264 266
232 230 231 232 234 236 236 235 232 232 233 233 232 230 228 226 227 227 225 225 225 227 229 230 229 228 228 229 230 229 226 225 225 226 228 229 229 229 229 229 228 228 229 231 232 234 235 236 238 239 240 241 240 235 232 233 236 240 241 241 238 234 230 227 228 229 231 234 235 235 236 236 236 236 235 235 234 234 238 245 251 257 257 254 255
257 246 241 240 240 239 238 236 234 233 234 235 234 231 228 226 226 226 226 225 226 227 228 228 227 226 227 227 228 228 226 226 228 228 229 229 228 228 229 228 228 229 229 230 231 232 234 235 237 239 240 243 242 238 233 233 238 241 242 241 239 234 229 228 229 231 232 233 234 234 234 233 234 236 238 244 245 241 241 247 251 254 258 261 264
275 261 252 249 248 245 241 238 236 236 237 236 234 231 229 227 226 226 226 225 225 226 227 226 225 225 226 226 226 226 227 228 229 228 230 231 229 228 228 228 228 229 229 230 231 231 231 232 236 237 239 241 239 235 233 233 237 239 240 238 237 235 233 231 232 233 233 233 233 234 233 233 235 237 240 244 242 240 245 249 250 256 264 272 274
278 271 262 256 252 249 244 239 237 238 239 236 234 233 231 229 226 225 225 226 226 225 225 225 225 225 225 225 225 226 228 230 229 228 230 231 230 229 228 228 229 229 229 230 231 231 229 231 234 235 237 239 237 233 232 233 235 237 237 234 232 232 233 235 236 236 236 236 233 231 230 232 234 237 240 241 237 241 247 247 251 261 266 269 272
284 278 271 263 255 249 245 240 237 237 238 237 235 234 232 229 227 226 226 226 226 225 225 225 225 225 225 224 225 225 228 230 229 228 229 230 230 230 229 229 230 230 230 231 231 229 228 230 232 233 235 238 237 233 231 233 234 234 234 232 229 228 230 232 235 238 239 238 235 232 230 231 234 236 236 235 236 241 244 244 251 261 265 268 277
291 287 277 269 260 251 244 240 237 236 235 234 233 232 231 230 229 227 226 226 225 225 225 225 225 225 225 225 225 225 227 229 229 228 227 228 229 229 229 229 229 231 232 231 230 229 229 230 232 232 234 237 237 234 232 233 233 232 232 230 227 227 229 230 233 235 235 234 234 232 231 231 233 233 230 231 237 243 246 250 257 265 272 276 281
290 295 284 272 267 256 244 237 236 233 231 230 230 231 231 230 229 228 227 226 225 225 226 225 225 225 225 225 225 225 226 229 230 228 227 227 227 227 228 228 229 232 233 231 231 230 230 232 232 232 235 239 240 237 233 232 233 232 231 230 227 226 227 229 233 234 232 231 231 230 230 230 229 229 228 231 239 243 247 254 261 267 273 275 276
279 292 285 271 269 268 255 242 236 233 230 229 229 229 229 230 229 228 227 227 226 226 226 226 225 225 225 225 225 225 227 229 229 229 227 226 226 226 226 227 229 232 233 231 231 231 231 232 231 231 235 240 241 239 236 233 233 233 231 228 226 225 225 227 228 228 228 228 229 230 231 229 228 229 231 233 237 240 246 254 260 265 268 269 269
269 281 280 269 270 277 273 257 245 239 235 231 229 229 229 229 229 228 228 227 227 226 226 226 226 225 225 225 224 225 227 229 229 228 226 224 224 225 226 227 228 230 231 230 230 230 231 232 230 231 234 240 241 239 235 232 231 233 232 228 226 223 223 224 224 223 223 224 227 231 231 229 229 231 233 235 238 242 248 254 257 261 264 265 266
268 274 272 268 269 276 278 267 254 245 241 237 233 230 228 227 228 228 228 228 227 227 227 226 226 226 226 225 225 226 227 229 229 227 225 223 223 224 224 225 226 228 229 229 228 229 230 231 231 230 233 239 242 239 235 231 230 231 231 228 226 224 222 222 222 221 222 223 225 228 229 228 230 234 236 239 242 245 249 253 256 258 262 266 269
264 268 266 266 268 273 278 275 265 254 246 241 239 236 231 228 227 227 228 229 229 229 228 226 226 226 226 226 227 226 227 228 228 226 225 223 223 224 224 223 223 225 226 225 225 227 229 230 231 230 232 237 241 239 235 233 230 230 230 228 227 225 223 223 223 223 224 225 226 228 229 229 231 234 238 243 247 250 252 253 255 257 260 265 267
264 266 263 265 268 272 278 280 275 266 252 244 243 241 236 231 228 227 228 229 230 229 228 228 227 227 227 227 226 226 226 228 228 227 225 224 222 223 223 222 222 224 224 222 222 224 226 228 230 230 230 234 240 241 238 234 232 230 228 228 228 226 224 224 224 224 227 228 230 233 232 230 231 236 240 246 249 251 252 253 254 257 259 261 262
270 269 267 271 272 271 274 278 277 272 260 247 242 240 237 233 231 229 227 228 229 228 228 228 228 228 228 227 227 226 226 228 230 228 226 224 223 223 222 222 224 225 223 221 222 224 225 227 228 227 226 230 240 243 238 233 232 231 229 228 228 226 224 224 223 223 225 227 231 234 232 230 232 236 240 246 248 249 251 252 253 254 255 257 260
277 276 275 276 273 269 270 275 277 277 271 256 245 240 238 238 238 235 230 227 228 228 228 228 229 229 228 228 228 227 226 229 230 229 227 225 223 223 224 223 224 225 224 222 222 225 226 228 229 227 225 229 239 244 239 232 231 232 229 225 223 221 221 222 223 222 221 225 232 233 229 228 230 234 238 242 244 246 248 250 252 253 254 255 254
276 279 279 276 269 267 272 279 282 282 277 266 254 246 241 238 238 237 232 228 228 228 228 228 229 230 229 229 228 227 226 228 229 229 228 226 224 224 225 224 224 226 226 225 225 224 225 228 231 228 224 228 238 243 239 232 230 231 228 220 214 214 215 218 220 218 218 225 233 231 225 224 227 231 235 238 240 244 246 248 251 250 246 243 241
274 276 277 271 266 267 275 284 289 288 280 270 260 250 243 240 238 236 234 232 231 229 227 226 227 228 229 229 228 228 227 227 229 229 228 227 226 224 224 224 225 227 228 229 229 227 227 229 230 227 224 229 236 238 233 229 229 230 226 216 209 209 211 213 214 215 218 225 229 226 223 224 226 229 232 235 239 242 240 239 238 233 229 234 241
275 275 269 262 262 267 274 281 287 289 283 271 257 246 241 242 242 241 239 238 235 232 230 227 226 228 230 230 229 228 227 227 228 229 229 228 227 224 223 223 225 228 229 230 230 229 229 231 231 227 226 230 232 230 227 226 227 228 224 214 207 208 211 212 212 215 220 224 225 223 222 224 227 230 232 231 229 225 219 216 216 214 218 228 235
271 267 261 258 261 265 270 277 282 287 283 269 256 245 240 240 242 243 243 243 241 236 233 231 230 230 231 231 230 229 228 227 227 227 227 227 226 224 222 223 225 227 230 232 231 229 228 230 229 227 227 229 228 226 223 223 224 223 220 214 209 209 212 214 215 217 220 222 223 222 222 224 225 224 221 216 212 210 209 213 216 215 219 228 240
266 262 260 261 264 265 270 276 279 283 282 271 259 252 249 247 244 242 243 245 246 242 238 236 233 230 229 229 230 229 228 226 227 227 225 225 224 222 220 220 222 224 227 230 229 226 224 225 226 227 228 228 226 223 222 221 220 219 217 214 212 212 214 216 218 220 223 224 224 223 222 222 219 214 211 209 206 206 212 220 220 218 224 237 252
265 265 265 266 268 270 274 278 279 280 283 280 270 259 253 252 249 245 244 247 247 245 243 239 234 231 230 229 229 228 227 226 227 228 226 224 222 219 216 216 218 220 223 225 222 219 218 219 221 222 223 221 218 217 217 218 219 220 218 214 211 211 214 215 217 221 224 225 225 223 219 217 214 210 208 206 205 209 219 222 217 218 231 241 251
266 271 273 273 276 279 282 283 281 280 281 282 277 263 252 250 250 249 247 247 247 247 246 243 238 235 232 230 228 227 227 227 229 230 229 226 223 219 215 213 214 217 221 222 219 215 214 216 217 218 216 214 212 212 213 215 217 219 217 214 211 209 209 211 213 217 219 220 222 221 217 215 214 207 200 200 202 208 217 221 219 224 236 242 247
271 278 283 286 291 295 295 289 284 282 282 280 274 265 255 250 249 248 246 245 246 248 248 246 242 237 232 231 231 230 229 230 231 231 230 227 224 221 217 214 214 218 221 222 219 216 214 215 216 216 215 214 212 212 211 212 214 215 213 213 213 210 208 210 213 215 217 220 221 221 217 214 210 203 199 201 204 207 213 219 222 226 230 231 233
287 297 300 301 303 306 306 301 294 289 286 278 268 261 256 251 247 246 244 242 245 253 253 246 240 235 231 229 229 230 231 232 232 232 230 227 224 222 219 217 220 225 226 223 218 215 216 216 216 216 216 215 214 213 213 212 212 212 212 213 214 211 209 211 212 213 216 219 220 219 215 210 205 201 201 204 207 209 212 217 221 223 223 224 226
293 305 304 300 303 307 310 308 302 294 288 279 266 257 252 247 242 239 236 232 236 253 260 250 238 233 231 230 229 229 231 232 232 232 231 227 223 221 220 222 226 231 229 223 217 216 217 218 218 217 216 216 217 217 216 214 211 211 213 215 214 211 210 212 213 213 214 217 217 216 211 206 204 204 205 208 209 209 212 217 221 223 224 227 228
288 289 293 294 297 303 306 304 298 292 289 285 275 262 253 247 242 236 231 227 228 238 249 247 238 232 232 232 232 233 234 233 232 231 229 226 224 222 222 225 230 231 226 219 215 216 217 218 219 220 219 220 221 221 220 217 213 211 214 216 215 212 211 212 213 214 215 215 216 214 211 208 207 207 209 211 208 207 211 216 219 222 229 233 231
301 287 288 292 294 298 302 301 296 291 287 286 281 269 258 252 248 244 240 237 233 231 233 234 233 231 230 230 230 231 233 233 231 229 226 224 222 221 222 225 228 228 223 218 215 216 217 218 219 221 221 222 222 222 221 218 213 211 215 218 216 213 213 213 213 214 215 215 214 214 212 211 211 210 212 212 208 207 211 215 217 222 228 230 230
327 310 300 296 295 294 296 300 300 293 285 285 285 277 265 255 251 251 248 244 241 236 232 231 231 229 228 228 228 230 230 230 229 226 224 220 217 216 218 219 218 216 215 215 215 217 218 219 220 221 222 223 223 224 222 217 211 210 215 217 214 212 213 215 214 214 215 214 214 213 212 213 214 216 216 214 209 208 210 212 215 220 224 225 224
348 343 330 312 303 298 296 300 302 295 287 283 282 282 277 263 253 252 248 241 238 236 233 232 230 226 223 223 225 227 228 228 226 223 219 213 210 211 214 215 214 212 210 211 214 217 219 220 221 222 223 223 223 223 220 215 210 212 216 217 214 211 212 215 215 214 214 214 215 214 213 213 214 217 217 214 210 209 210 212 215 219 223 225 224
358 355 348 335 324 315 306 303 305 306 302 292 279 276 277 265 255 254 246 235 231 229 226 225 224 220 215 214 216 220 225 225 221 216 212 208 208 210 213 214 214 213 211 212 215 216 219 220 222 223 224 224 224 222 218 212 212 215 217 218 216 213 213 216 217 215 215 214 214 215 214 212 209 210 212 213 213 214 215 216 219 222 225 227 229
5 3 0 354 347 338 325 317 318 322 316 293 275 274 276 262 250 246 238 230 227 226 222 219 215 212 211 209 209 212 218 218 212 206 204 204 205 208 212 214 215 214 214 215 217 218 219 221 223 224 226 226 226 223 216 211 214 218 218 217 215 214 215 219 218 216 215 214 213 214 212 208 206 207 210 213 215 216 217 218 220 224 227 230 233
8 8 11 12 9 1 347 332 327 329 323 288 271 274 281 270 253 242 234 230 229 228 226 222 215 209 208 209 208 209 210 209 205 201 199 199 200 203 207 211 214 216 216 215 216 217 219 221 223 225 226 227 227 224 217 214 217 218 217 217 214 211 214 216 214 210 207 208 211 212 209 207 209 211 213 215 216 215 215 217 220 225 228 232 234
12 12 16 19 16 11 4 353 344 339 333 314 292 285 282 276 272 259 244 238 237 234 233 237 232 219 211 208 208 207 206 205 203 200 197 195 195 199 205 210 213 216 217 216 216 217 218 220 223 225 226 227 228 226 222 219 217 214 214 215 211 209 211 211 207 203 202 202 205 206 206 206 209 212 215 217 217 215 212 213 218 224 228 231 230
16 16 21 25 24 19 15 10 6 1 348 326 312 303 284 267 273 280 267 257 255 229 210 241 246 233 219 211 207 206 204 205 205 205 203 199 197 200 206 211 213 215 217 218 219 220 221 222 224 226 226 226 226 224 222 221 216 211 213 214 209 208 210 208 202 202 203 200 199 199 200 203 207 211 214 215 216 216 212 212 217 224 228 230 231
20 21 25 30 30 27 25 24 23 20 11 353 340 332 308 280 274 279 268 253 248 225 210 219 232 232 226 220 214 211 211 214 215 215 215 214 212 210 210 211 212 215 218 220 221 222 223 224 225 225 225 225 223 221 221 220 214 210 214 215 209 205 205 203 202 205 206 202 200 200 202 206 210 213 214 214 217 222 222 218 219 224 228 233 233
24 24 27 31 33 32 31 31 32 32 30 22 13 11 13 359 336 328 160 171 186 212 226 222 218 220 223 221 215 213 217 222 224 223 222 221 220 217 215 214 215 218 220 221 222 223 223 223 224 225 225 224 222 221 220 218 213 210 211 209 203 199 199 201 205 207 207 207 206 206 207 211 214 215 214 214 220 228 230 224 222 226 230 231 228
30 33 35 36 36 36 35 34 35 37 37 35 30 30 37 47 57 67 82 126 161 185 214 219 208 200 205 210 212 214 218 222 225 225 226 226 225 223 222 222 222 222 222 221 220 221 222 222 222 221 221 220 220 219 217 214 211 209 206 200 196 195 196 200 205 207 208 207 207 207 209 211 212 213 214 216 223 230 232 229 228 228 226 221 217
31 42 45 42 41 40 39 39 40 42 44 45 44 44 46 50 59 71 79 92 120 152 197 224 220 209 210 215 216 218 221 225 226 228 230 232 231 231 230 231 230 228 225 223 221 220 221 221 219 218 217 216 216 214 210 206 204 203 200 198 196 195 195 198 202 205 206 206 207 210 213 211 208 209 214 220 227 232 233 234 233 226 216 212 214
22 36 45 46 46 44 42 41 43 45 48 49 48 48 48 49 52 60 72 79 89 113 148 200 228 231 228 223 218 219 224 227 228 229 231 232 233 234 233 232 231 230 228 226 224 222 221 220 218 215 212 211 209 206 201 198 197 198 198 199 199 197 195 197 201 204 206 207 209 214 218 218 216 218 222 227 232 235 237 238 232 221 212 213 219
9 20 35 45 50 49 45 42 42 44 48 49 49 49 49 49 49 55 64 71 74 81 91 102 130 193 213 212 212 218 226 230 232 235 235 234 234 234 232 230 229 228 227 226 224 222 219 216 214 211 208 204 201 196 192 192 195 197 195 196 200 202 200 198 201 205 208 210 214 218 221 222 222 225 228 231 233 236 236 232 223 216 215 220 224
3 15 32 44 52 55 51 46 44 46 48 50 50 51 51 51 52 55 60 64 64 62 61 64 71 77 89 133 178 204 223 234 240 244 243 239 236 234 232 229 226 224 223 223 222 219 215 211 207 204 201 198 194 192 191 192 193 193 191 194 202 206 203 199 199 203 207 212 217 221 223 223 221 222 224 227 231 232 230 224 217 215 220 224 226
9 23 40 51 58 63 60 53 49 51 53 54 54 55 54 53 54 55 58 61 61 57 54 56 59 60 61 69 93 149 208 225 230 235 238 237 233 227 224 223 221 220 219 219 217 212 209 207 202 197 194 191 189 192 194 193 190 190 193 198 204 208 212 212 209 206 208 213 218 222 223 222 218 216 216 220 224 225 221 218 216 219 223 227 228
14 29 48 62 69 74 72 64 57 55 58 60 60 59 58 57 56 57 59 61 61 59 59 61 63 63 63 64 68 77 100 127 143 163 184 192 191 193 197 199 201 200 201 202 202 199 198 200 198 195 192 191 192 196 199 199 197 197 200 204 207 211 216 219 218 216 216 218 219 220 220 217 213 209 207 207 210 212 213 214 217 219 223 227 230
18 39 63 79 86 88 84 75 65 61 61 64 64 63 62 62 61 61 63 65 66 66 67 69 69 69 69 70 75 86 101 116 125 127 128 132 143 159 168 169 169 172 177 182 182 180 182 187 189 189 189 192 194 195 197 198 199 201 202 203 203 201 201 206 213 216 215 213 211 210 210 208 203 198 193 189 190 196 203 210 215 220 225 229 231
Height
1446 1450 1453 1455 1458 1460 1462 1465 1468 1471 1474 1477 1480 1483 1485 1487 1488 1489 1491 1493 1495 1497 1499 1500 1501 1503 1504 1506 1506 1507 1509 1510 1512 1514 1515 1517 1518 1520 1522 1523 1523 1525 1526 1527 1528 1528 1529 1530 1531 1532 1533 1534 1535 1536 1537 1538 1539 1540 1541 1542 1542 1543 1543 1543 1543 1543 1543 1543 1543 1543 1544 1546 1546 1547 1547 1548 1549 1549 1549 1549 1548 1548 1547 1547 1547
1443 1446 1449 1452 1454 1456 1460 1463 1465 1467 1470 1473 1476 1479 1482 1484 1485 1486 1487 1489 1491 1493 1495 1496 1498 1500 1501 1502 1503 1504 1505 1506 1508 1510 1511 1512 1514 1515 1518 1519 1520 1521 1522 1523 1524 1525 1526 1527 1528 1529 1530 1531 1532 1533 1534 1534 1536 1537 1537 1538 1539 1539 1540 1540 1541 1541 1542 1542 1542 1542 1543 1544 1544 1545 1546 1546 1547 1547 1547 1546 1546 1546 1546 1545 1545
1443 1445 1448 1449 1451 1454 1457 1460 1462 1465 1467 1469 1471 1474 1477 1480 1482 1483 1483 1485 1487 1489 1491 1493 1495 1497 1498 1499 1500 1500 1501 1502 1504 1505 1506 1508 1509 1511 1513 1515 1516 1517 1518 1519 1520 1521 1522 1523 1524 1526 1527 1528 1529 1530 1531 1531 1532 1533 1534 1535 1535 1536 1538 1539 1540 1540 1540 1541 1541 1541 1541 1542 1543 1543 1544 1544 1545 1545 1544 1544 1544 1544 1544 1543 1543
1441 1444 1446 1448 1450 1452 1454 1457 1459 1461 1463 1465 1467 1469 1473 1475 1478 1479 1479 1481 1483 1485 1487 1489 1491 1493 1494 1495 1496 1496 1497 1498 1499 1501 1502 1504 1505 1507 1509 1511 1513 1514 1515 1516 1517 1518 1518 1519 1521 1522 1523 1524 1525 1526 1527 1528 1529 1529 1530 1532 1533 1534 1535 1537 1538 1538 1538 1538 1539 1539 1539 1540 1541 1541 1542 1542 1542 1542 1543 1543 1542 1542 1542 1542 1542
1438 1440 1443 1445 1447 1449 1451 1453 1455 1457 1459 1461 1463 1465 1468 1471 1473 1474 1475 1477 1479 1480 1483 1485 1487 1488 1489 1491 1491 1492 1493 1494 1495 1497 1498 1500 1502 1503 1505 1507 1509 1510 1511 1512 1513 1514 1515 1516 1518 1519 1520 1520 1521 1522 1524 1525 1526 1527 1528 1529 1530 1532 1533 1534 1535 1535 1536 1536 1536 1537 1538 1538 1539 1540 1540 1540 1540 1540 1540 1541 1541 1541 1541 1540 1540
1433 1435 1438 1441 1444 1445 1447 1449 1451 1452 1454 1457 1459 1461 1464 1466 1468 1470 1471 1473 1474 1476 1478 1479 1481 1483 1484 1487 1488 1488 1489 1490 1491 1492 1494 1496 1498 1500 1501 1503 1505 1507 1507 1509 1510 1511 1512 1513 1514 1516 1516 1517 1518 1519 1520 1521 1523 1524 1525 1526 1528 1530 1530 1531 1531 1532 1533 1534 1535 1535 1536 1536 1537 1538 1538 1538 1538 1538 1539 1539 1539 1539 1539 1539 1539
1429 1431 1434 1436 1439 1441 1443 1445 1447 1449 1451 1452 1455 1457 1459 1461 1464 1466 1467 1469 1470 1471 1473 1475 1476 1478 1480 1483 1484 1485 1486 1486 1487 1489 1490 1492 1494 1495 1497 1499 1501 1503 1504 1505 1506 1508 1509 1510 1511 1512 1513 1514 1515 1516 1517 1518 1520 1521 1523 1524 1525 1526 1527 1527 1528 1530 1531 1532 1532 1533 1533 1534 1535 1536 1537 1536 1536 1537 1537 1538 1538 1538 1538 1537 1538
1427 1429 1431 1432 1434 1436 1439 1441 1444 1446 1447 1449 1450 1451 1453 1456 1460 1462 1464 1465 1466 1467 1468 1470 1472 1474 1476 1479 1480 1482 1482 1483 1483 1484 1485 1487 1489 1491 1492 1494 1497 1499 1501 1502 1503 1504 1505 1506 1507 1508 1509 1510 1512 1513 1514 1516 1517 1518 1519 1521 1521 1522 1523 1524 1526 1527 1528 1529 1530 1531 1531 1532 1533 1534 1535 1535 1535 1535 1535 1536 1536 1536 1536 1536 1536
1426 1427 1429 1430 1431 1433 1435 1438 1440 1442 1444 1445 1446 1446 1448 1451 1455 1458 1460 1461 1462 1463 1464 1466 1468 1470 1472 1475 1477 1478 1478 1478 1478 1479 1480 1482 1484 1486 1488 1490 1492 1495 1497 1498 1500 1501 1502 1503 1503 1504 1506 1507 1508 1509 1511 1512 1513 1515 1516 1517 1518 1519 1521 1522 1523 1524 1526 1527 1528 1529 1529 1530 1530 1531 1532 1533 1533 1534 1534 1534 1535 1535 1535 1535 1535
1423 1424 1426 1427 1429 1431 1433 1435 1437 1438 1440 1441 1442 1442 1443 1445 1448 1453 1456 1457 1458 1459 1461 1463 1464 1466 1468 1470 1472 1473 1473 1473 1473 1474 1475 1477 1479 1482 1484 1486 1488 1491 1492 1494 1496 1497 1498 1499 1500 1501 1502 1504 1505 1506 1507 1508 1510 1511 1513 1514 1515 1517 1518 1519 1520 1522 1523 1524 1525 1526 1526 1527 1527 1528 1530 1531 1532 1532 1532 1533 1533 1533 1533 1533 1533
1420 1421 1422 1423 1426 1428 1429 1431 1433 1434 1435 1436 1438 1439 1439 1440 1442 1447 1451 1453 1454 1455 1457 1458 1460 1461 1463 1465 1467 1468 1467 1467 1467 1469 1471 1473 1475 1477 1479 1482 1484 1487 1488 1490 1492 1493 1495 1496 1497 1498 1499 1500 1501 1502 1504 1505 1506 1508 1510 1511 1513 1514 1515 1517 1518 1519 1520 1521 1522 1523 1523 1524 1525 1526 1527 1529 1530 1530 1530 1531 1531 1531 1531 1531 1531
1416 1418 1419 1419 1421 1423 1425 1427 1428 1429 1430 1431 1433 1435 1436 1436 1437 1441 1445 1448 1450 1451 1452 1453 1455 1457 1458 1460 1462 1462 1462 1462 1463 1465 1467 1469 1471 1473 1475 1478 1480 1482 1484 1486 1488 1489 1491 1493 1494 1495 1496 1497 1498 1499 1500 1502 1503 1505 1506 1508 1510 1512 1513 1514 1515 1517 1518 1519 1519 1520 1520 1521 1523 1524 1525 1526 1527 1528 1528 1529 1529 1529 1530 1529 1529
1413 1415 1416 1417 1417 1418 1420 1421 1423 1424 1425 1427 1429 1431 1432 1432 1433 1436 1439 1443 1445 1446 1447 1448 1450 1452 1454 1455 1456 1457 1457 1458 1459 1461 1462 1464 1466 1469 1471 1474 1476 1478 1479 1481 1484 1485 1487 1489 1490 1491 1492 1494 1495 1496 1497 1499 1500 1501 1503 1505 1506 1508 1510 1512 1513 1514 1515 1516 1517 1517 1518 1519 1520 1521 1522 1524 1525 1526 1526 1527 1527 1527 1528 1527 1527
1411 1412 1413 1415 1415 1415 1415 1416 1417 1419 1420 1422 1424 1426 1427 1428 1429 1431 1434 1437 1440 1441 1442 1443 1444 1447 1449 1450 1451 1452 1453 1453 1454 1456 1458 1460 1462 1465 1467 1470 1472 1474 1475 1477 1479 1481 1483 1485 1486 1487 1489 1490 1491 1492 1494 1495 1497 1498 1500 1501 1503 1505 1507 1509 1510 1512 1513 1514 1515 1515 1516 1517 1518 1519 1520 1521 1522 1523 1524 1525 1525 1525 1526 1526 1525
1409 1409 1410 1411 1413 1413 1412 1411 1411 1413 1415 1417 1419 1420 1422 1423 1425 1428 1430 1432 1434 1435 1437 1438 1439 1441 1443 1445 1446 1447 1448 1449 1449 1451 1453 1455 1458 1461 1464 1466 1468 1470 1471 1473 1475 1477 1479 1481 1482 1484 1485 1487 1488 1489 1490 1492 1494 1496 1497 1498 1500 1502 1504 1506 1507 1509 1510 1512 1513 1514 1515 1515 1516 1517 1518 1519 1520 1521 1522 1523 1524 1524 1524 1524 1524
1406 1407 1407 1408 1409 1410 1410 1410 1410 1409 1410 1412 1413 1414 1416 1418 1420 1423 1425 1427 1428 1430 1431 1432 1434 1436 1438 1440 1442 1442 1443 1444 1445 1446 1449 1451 1455 1458 1460 1462 1464 1466 1467 1468 1470 1472 1475 1477 1479 1480 1482 1483 1485 1486 1487 1489 1491 1493 1494 1495 1497 1498 1501 1503 1504 1506 1508 1509 1510 1512 1513 1514 1515 1516 1517 1517 1518 1520 1521 1521 1522 1522 1522 1522 1522
1405 1405 1405 1405 1406 1406 1407 1408 1409 1409 1409 1408 1408 1409 1410 1413 1416 1418 1420 1422 1423 1424 1426 1427 1429 1430 1432 1434 1436 1437 1438 1439 1440 1441 1444 1447 1451 1454 1455 1457 1459 1461 1462 1464 1466 1468 1470 1472 1475 1477 1478 1480 1481 1482 1484 1485 1488 1490 1491 1492 1493 1495 1497 1500 1501 1503 1505 1506 1508 1509 1511 1512 1513 1514 1515 1516 1516 1518 1518 1519 1519 1520 1520 1520 1520
1403 1403 1402 1402 1402 1403 1403 1403 1404 1405 1406 1405 1405 1405 1406 1407 1410 1412 1414 1416 1417 1418 1420 1422 1424 1425 1426 1428 1430 1431 1432 1433 1435 1437 1440 1443 1446 1449 1451 1452 1454 1457 1458 1459 1461 1463 1466 1468 1470 1472 1474 1476 1478 1479 1480 1482 1484 1485 1487 1489 1490 1491 1493 1496 1498 1500 1502 1503 1505 1506 1508 1509 1511 1512 1512 1513 1514 1515 1516 1517 1517 1517 1517 1517 1518
1401 1400 1399 1398 1398 1398 1399 1398 1398 1400 1401 1401 1402 1403 1403 1403 1405 1407 1409 1410 1411 1413 1415 1416 1418 1419 1421 1422 1424 1426 1428 1429 1430 1433 1435 1438 1442 1444 1446 1448 1450 1452 1453 1454 1456 1459 1461 1464 1466 1468 1471 1473 1474 1476 1477 1478 1480 1481 1483 1485 1486 1487 1490 1492 1494 1496 1498 1500 1502 1503 1505 1506 1507 1508 1509 1511 1512 1512 1513 1514 1515 1515 1515 1515 1515
1397 1396 1396 1395 1394 1393 1394 1394 1393 1394 1395 1396 1397 1399 1400 1400 1400 1401 1403 1404 1406 1408 1410 1411 1413 1415 1417 1419 1420 1422 1424 1425 1426 1428 1431 1434 1437 1440 1442 1443 1444 1446 1448 1449 1451 1454 1456 1459 1461 1463 1467 1469 1471 1473 1474 1475 1476 1477 1479 1480 1482 1484 1487 1489 1491 1493 1495 1497 1499 1500 1502 1503 1504 1505 1506 1507 1509 1509 1510 1511 1512 1512 1513 1513 1513
1392 1392 1391 1391 1390 1390 1389 1390 1390 1389 1390 1391 1392 1392 1395 1397 1397 1396 1397 1398 1400 1402 1404 1407 1408 1410 1413 1415 1416 1418 1419 1420 1421 1424 1426 1429 1433 1435 1436 1437 1439 1441 1443 1444 1446 1448 1451 1453 1456 1459 1463 1466 1468 1469 1471 1472 1473 1473 1474 1476 1479 1482 1484 1486 1488 1490 1492 1494 1496 1498 1499 1500 1501 1502 1503 1504 1505 1506 1507 1508 1509 1510 1510 1511 1511
1387 1387 1387 1387 1387 1386 1386 1386 1386 1386 1386 1388 1388 1388 1389 1392 1394 1394 1394 1393 1393 1395 1399 1403 1404 1405 1407 1409 1411 1413 1414 1415 1416 1419 1422 1424 1428 1430 1431 1433 1435 1438 1439 1440 1441 1443 1445 1449 1451 1455 1459 1463 1465 1466 1467 1469 1469 1470 1471 1473 1477 1480 1482 1484 1486 1487 1489 1491 1492 1494 1495 1496 1497 1499 1500 1501 1502 1504 1505 1506 1507 1508 1508 1508 1509
1383 1382 1382 1382 1382 1382 1382 1382 1382 1381 1382 1383 1384 1384 1385 1386 1387 1389 1389 1388 1387 1388 1391 1395 1399 1401 1403 1404 1406 1408 1409 1409 1411 1414 1417 1420 1423 1425 1427 1429 1432 1434 1434 1435 1436 1439 1442 1445 1448 1451 1457 1461 1462 1462 1463 1464 1465 1466 1468 1471 1473 1476 1478 1480 1482 1483 1485 1487 1488 1490 1491 1492 1494 1495 1497 1498 1500 1501 1502 1503 1504 1505 1506 1506 1507
1377 1377 1378 1378 1377 1377 1377 1377 1377 1376 1376 1377 1378 1380 1381 1381 1380 1381 1382 1384 1383 1383 1384 1387 1391 1395 1398 1399 1401 1403 1404 1405 1407 1409 1412 1415 1418 1421 1424 1426 1428 1430 1431 1432 1434 1436 1439 1442 1445 1449 1454 1457 1458 1458 1459 1460 1462 1463 1465 1467 1469 1472 1474 1476 1478 1479 1481 1483 1484 1485 1487 1489 1491 1492 1494 1496 1497 1499 1500 1501 1502 1503 1503 1504 1504
1372 1373 1373 1373 1373 1373 1372 1372 1371 1370 1370 1371 1372 1373 1375 1375 1375 1375 1377 1378 1379 1379 1381 1382 1384 1388 1392 1395 1398 1399 1400 1401 1403 1405 1408 1411 1414 1418 1421 1423 1425 1427 1429 1430 1431 1433 1436 1440 1443 1447 1451 1453 1454 1454 1455 1457 1458 1460 1461 1463 1465 1467 1469 1472 1474 1475 1477 1479 1480 1482 1484 1486 1488 1490 1492 1494 1495 1496 1497 1499 1500 1501 1501 1502 1502
1368 1369 1369 1369 1368 1368 1367 1366 1365 1365 1365 1365 1365 1367 1368 1368 1369 1371 1372 1373 1373 1375 1379 1380 1380 1382 1387 1392 1396 1397 1396 1397 1398 1400 1403 1407 1410 1414 1418 1420 1423 1425 1426 1428 1429 1431 1434 1437 1441 1444 1447 1448 1449 1449 1451 1453 1455 1456 1458 1460 1461 1463 1465 1467 1470 1471 1473 1475 1478 1480 1482 1484 1486 1488 1490 1491 1492 1493 1495 1496 1497 1498 1499 1499 1500
1364 1364 1364 1364 1363 1362 1361 1360 1359 1359 1359 1359 1360 1362 1363 1362 1361 1361 1364 1366 1368 1371 1376 1378 1378 1379 1382 1388 1393 1394 1392 1393 1395 1396 1398 1401 1405 1409 1414 1416 1419 1421 1422 1424 1425 1427 1430 1434 1438 1441 1442 1444 1445 1446 1448 1450 1451 1453 1454 1456 1458 1460 1462 1464 1466 1468 1470 1472 1475 1477 1479 1481 1483 1485 1486 1488 1489 1490 1492 1494 1495 1496 1497 1497 1498
1361 1360 1360 1359 1358 1357 1356 1354 1353 1353 1353 1353 1355 1357 1357 1357 1355 1354 1355 1359 1361 1364 1369 1374 1376 1378 1380 1384 1388 1388 1387 1387 1389 1390 1391 1394 1398 1403 1407 1410 1413 1415 1417 1418 1421 1424 1428 1432 1435 1437 1438 1439 1441 1443 1444 1446 1448 1449 1451 1452 1454 1456 1459 1461 1464 1466 1468 1470 1472 1474 1476 1478 1480 1482 1483 1485 1486 1488 1490 1491 1492 1493 1495 1496 1496
1356 1356 1356 1355 1354 1352 1351 1350 1348 1348 1348 1348 1350 1351 1351 1351 1351 1349 1350 1352 1354 1357 1361 1365 1369 1373 1377 1379 1381 1382 1380 1381 1384 1386 1387 1389 1393 1397 1401 1405 1409 1411 1413 1415 1418 1421 1425 1428 1430 1431 1432 1434 1436 1438 1440 1442 1444 1445 1447 1449 1451 1453 1455 1457 1459 1462 1464 1467 1469 1471 1473 1475 1477 1479 1481 1482 1484 1486 1488 1489 1490 1492 1493 1494 1494
1352 1352 1352 1351 1350 1348 1347 1346 1344 1344 1344 1344 1344 1345 1345 1345 1345 1345 1346 1347 1348 1351 1354 1358 1361 1366 1369 1371 1374 1376 1376 1377 1381 1384 1386 1388 1392 1395 1399 1404 1407 1409 1411 1413 1416 1419 1421 1423 1424 1425 1427 1429 1431 1433 1435 1438 1440 1441 1444 1446 1447 1449 1451 1453 1456 1458 1461 1463 1466 1468 1470 1472 1474 1476 1478 1480 1482 1484 1486 1487 1489 1490 1491 1492 1493
1348 1348 1347 1346 1346 1345 1344 1343 1342 1341 1340 1340 1340 1340 1340 1340 1340 1340 1342 1344 1345 1346 1348 1351 1355 1358 1361 1365 1369 1372 1373 1375 1377 1380 1383 1387 1392 1395 1399 1402 1404 1406 1407 1409 1411 1414 1416 1418 1419 1421 1422 1425 1427 1429 1430 1432 1435 1438 1442 1445 1446 1446 1448 1450 1452 1455 1458 1460 1463 1465 1467 1469 1471 1473 1475 1477 1479 1482 1483 1485 1486 1488 1489 1490 1491
1344 1343 1343 1342 1342 1342 1341 1340 1339 1338 1338 1337 1337 1336 1336 1336 1336 1336 1337 1338 1339 1339 1340 1343 1346 1349 1353 1358 1363 1368 1370 1371 1372 1376 1381 1386 1390 1394 1396 1398 1399 1401 1402 1404 1406 1409 1410 1412 1414 1416 1418 1420 1422 1424 1425 1426 1428 1432 1437 1440 1442 1443 1444 1447 1449 1453 1455 1457 1460 1462 1464 1466 1468 1470 1473 1475 1477 1479 1481 1482 1483 1485 1486 1487 1488
1339 1339 1339 1339 1339 1338 1338 1337 1337 1336 1335 1334 1333 1332 1332 1332 1332 1331 1332 1333 1333 1333 1333 1336 1339 1342 1346 1350 1355 1359 1363 1365 1367 1371 1376 1382 1386 1389 1391 1392 1393 1395 1396 1397 1400 1402 1404 1406 1409 1411 1412 1414 1416 1418 1419 1421 1423 1426 1429 1433 1437 1439 1442 1444 1447 1450 1452 1455 1457 1459 1461 1463 1466 1468 1470 1472 1474 1476 1477 1479 1480 1482 1483 1484 1485
1335 1336 1336 1337 1336 1335 1334 1334 1335 1334 1332 1331 1330 1329 1328 1327 1327 1327 1327 1328 1329 1329 1329 1331 1334 1337 1340 1344 1348 1352 1355 1359 1362 1365 1371 1376 1380 1383 1384 1385 1387 1388 1389 1391 1393 1396 1399 1402 1404 1405 1407 1408 1411 1413 1413 1415 1419 1422 1425 1429 1433 1437 1440 1442 1444 1446 1449 1451 1454 1456 1458 1460 1462 1464 1467 1469 1471 1473 1474 1476 1477 1479 1480 1482 1483
1334 1334 1335 1335 1334 1332 1331 1331 1332 1331 1329 1328 1327 1327 1326 1325 1324 1324 1323 1323 1324 1325 1326 1328 1330 1332 1334 1337 1342 1346 1349 1352 1356 1360 1365 1369 1372 1374 1375 1377 1379 1381 1383 1385 1387 1390 1394 1396 1398 1400 1402 1404 1407 1408 1409 1411 1415 1419 1422 1425 1429 1433 1436 1438 1440 1443 1445 1448 1450 1452 1455 1457 1459 1461 1464 1466 1468 1469 1471 1473 1474 1476 1478 1479 1480
1334 1334 1334 1333 1332 1331 1330 1329 1329 1328 1327 1325 1325 1325 1324 1323 1322 1322 1321 1321 1321 1322 1323 1324 1326 1328 1330 1332 1336 1340 1343 1345 1349 1353 1357 1360 1362 1364 1367 1368 1370 1373 1376 1379 1383 1386 1390 1392 1394 1397 1399 1401 1404 1405 1406 1410 1415 1418 1420 1423 1426 1429 1432 1434 1437 1440 1442 1444 1446 1449 1451 1454 1456 1458 1461 1463 1464 1466 1468 1470 1472 1473 1475 1477 1478
1336 1335 1334 1332 1330 1329 1329 1328 1327 1326 1324 1322 1321 1321 1322 1321 1320 1319 1319 1319 1320 1320 1319 1319 1321 1324 1327 1329 1332 1335 1337 1340 1343 1346 1349 1352 1355 1358 1360 1362 1364 1367 1371 1375 1379 1383 1386 1389 1392 1394 1397 1399 1401 1403 1407 1412 1415 1417 1418 1421 1424 1427 1429 1432 1435 1437 1439 1441 1443 1446 1448 1450 1453 1455 1457 1459 1461 1463 1465 1467 1468 1470 1472 1474 1476
1340 1338 1335 1332 1329 1328 1327 1326 1325 1324 1323 1320 1319 1318 1319 1319 1318 1317 1318 1318 1318 1316 1315 1315 1318 1321 1323 1326 1329 1331 1334 1337 1340 1343 1347 1349 1351 1353 1355 1358 1360 1364 1367 1371 1374 1378 1382 1385 1388 1391 1394 1396 1399 1401 1406 1411 1414 1415 1416 1419 1421 1424 1428 1431 1433 1435 1437 1439 1440 1442 1445 1447 1450 1452 1454 1456 1458 1459 1461 1463 1465 1467 1469 1471 1473
1340 1337 1334 1331 1328 1327 1325 1323 1323 1323 1322 1320 1319 1318 1317 1316 1316 1316 1316 1316 1315 1313 1311 1313 1316 1319 1321 1323 1326 1328 1330 1332 1335 1339 1343 1345 1347 1349 1352 1355 1358 1361 1365 1368 1371 1374 1378 1381 1384 1387 1390 1393 1396 1399 1404 1408 1410 1411 1413 1415 1418 1421 1425 1428 1430 1432 1434 1436 1437 1439 1441 1444 1446 1449 1451 1453 1455 1456 1458 1460 1462 1464 1466 1468 1470
1338 1335 1333 1330 1327 1325 1324 1322 1321 1320 1319 1318 1317 1316 1315 1314 1314 1313 1314 1313 1311 1309 1309 1311 1314 1317 1320 1321 1323 1324 1327 1330 1333 1336 1338 1340 1343 1346 1349 1352 1355 1359 1362 1365 1368 1371 1375 1378 1380 1383 1386 1389 1391 1395 1399 1403 1405 1407 1409 1411 1414 1417 1421 1424 1426 1429 1431 1433 1435 1436 1439 1441 1444 1446 1448 1450 1451 1453 1455 1457 1459 1462 1464 1465 1467
1338 1336 1333 1330 1328 1326 1324 1322 1320 1319 1317 1316 1315 1314 1313 1313 1312 1311 1311 1309 1307 1306 1307 1310 1313 1317 1319 1321 1322 1324 1327 1330 1333 1336 1338 1339 1342 1344 1346 1349 1353 1356 1360 1363 1366 1369 1372 1374 1376 1379 1381 1384 1387 1391 1395 1399 1403 1405 1407 1408 1411 1414 1417 1420 1423 1425 1428 1430 1432 1434 1436 1439 1441 1443 1445 1447 1449 1451 1452 1455 1457 1459 1461 1463 1464
1340 1338 1335 1332 1330 1327 1325 1323 1321 1319 1318 1316 1314 1313 1313 1312 1311 1310 1309 1307 1306 1306 1308 1310 1313 1316 1319 1320 1322 1325 1327 1330 1333 1336 1338 1340 1342 1343 1345 1348 1351 1354 1357 1360 1363 1366 1368 1370 1372 1375 1377 1379 1382 1386 1390 1396 1401 1403 1404 1406 1409 1411 1414 1416 1419 1422 1425 1428 1430 1432 1434 1437 1439 1440 1442 1444 1446 1448 1450 1452 1454 1456 1458 1460 1461
1342 1340 1337 1334 1332 1329 1327 1325 1323 1321 1319 1318 1316 1315 1314 1312 1312 1311 1309 1308 1308 1309 1310 1311 1313 1315 1318 1320 1321 1324 1326 1328 1331 1333 1335 1338 1340 1342 1344 1346 1349 1352 1354 1357 1360 1362 1365 1367 1369 1371 1373 1375 1379 1383 1388 1393 1397 1399 1401 1404 1406 1408 1410 1413 1416 1420 1422 1425 1427 1430 1432 1434 1436 1438 1440 1442 1444 1446 1448 1450 1451 1453 1455 1457 1458
1344 1342 1339 1337 1334 1332 1330 1328 1326 1324 1322 1320 1318 1316 1315 1313 1312 1312 1310 1310 1310 1311 1311 1312 1313 1315 1317 1319 1320 1322 1325 1327 1330 1332 1334 1336 1338 1340 1342 1344 1347 1349 1352 1354 1356 1359 1362 1364 1367 1369 1371 1375 1378 1382 1387 1392 1396 1398 1400 1402 1403 1405 1408 1411 1414 1417 1420 1422 1425 1427 1430 1432 1433 1435 1437 1440 1442 1443 1445 1447 1449 1450 1452 1454 1455
1345 1343 1340 1338 1336 1335 1333 1331 1329 1327 1325 1323 1321 1318 1316 1314 1313 1312 1311 1311 1311 1311 1312 1312 1313 1315 1317 1319 1321 1322 1325 1327 1329 1330 1332 1334 1336 1338 1341 1343 1345 1347 1349 1351 1353 1355 1358 1361 1364 1367 1371 1374 1378 1382 1386 1390 1394 1397 1400 1401 1402 1403 1405 1409 1412 1416 1418 1420 1423 1425 1427 1429 1431 1433 1435 1437 1439 1441 1442 1444 1446 1447 1449 1451 1452
1347 1345 1342 1340 1339 1337 1336 1334 1332 1330 1327 1325 1323 1320 1318 1316 1314 1313 1312 1311 1311 1311 1311 1312 1313 1315 1317 1319 1321 1322 1324 1326 1327 1329 1330 1332 1335 1337 1339 1341 1343 1345 1346 1348 1351 1353 1356 1358 1361 1365 1370 1374 1377 1381 1384 1387 1391 1395 1398 1401 1402 1404 1406 1409 1412 1415 1416 1418 1421 1423 1425 1426 1428 1431 1433 1435 1436 1438 1440 1441 1443 1444 1446 1448 1450
1348 1346 1344 1342 1341 1339 1338 1336 1334 1332 1329 1327 1325 1322 1320 1317 1315 1313 1312 1312 1311 1312 1312 1312 1313 1315 1317 1318 1320 1321 1323 1324 1326 1327 1329 1331 1333 1335 1337 1339 1341 1343 1345 1347 1350 1352 1355 1358 1361 1365 1369 1373 1377 1381 1384 1387 1390 1393 1397 1400 1402 1404 1406 1408 1411 1413 1415 1417 1419 1421 1423 1425 1427 1429 1430 1432 1434 1436 1437 1439 1440 1442 1444 1446 1448
1348 1347 1345 1343 1342 1341 1339 1338 1336 1334 1331 1329 1327 1324 1322 1320 1317 1315 1314 1313 1313 1313 1314 1314 1315 1316 1317 1319 1320 1322 1323 1324 1325 1327 1328 1330 1332 1334 1336 1337 1339 1342 1344 1346 1349 1352 1355 1359 1363 1366 1369 1373 1377 1381 1385 1387 1390 1393 1395 1398 1401 1403 1405 1407 1409 1411 1414 1416 1418 1419 1421 1423 1425 1426 1428 1430 1431 1433 1434 1436 1438 1439 1441 1443 1445
1349 1347 1345 1344 1343 1342 1340 1339 1338 1336 1334 1331 1329 1327 1325 1323 1321 1319 1318 1317 1316 1317 1317 1317 1318 1319 1320 1321 1322 1322 1323 1324 1325 1326 1328 1329 1331 1333 1335 1336 1338 1340 1342 1345 1348 1351 1354 1358 1363 1367 1371 1373 1376 1380 1383 1386 1389 1392 1394 1397 1399 1401 1404 1406 1408 1409 1412 1414 1415 1417 1418 1420 1422 1424 1425 1427 1429 1430 1432 1433 1436 1438 1440 1442 1443
1350 1348 1346 1345 1343 1342 1342 1341 1339 1337 1335 1333 1331 1329 1328 1326 1325 1324 1323 1322 1321 1321 1322 1322 1322 1322 1323 1323 1324 1324 1324 1325 1326 1327 1329 1330 1332 1333 1335 1336 1338 1339 1341 1344 1346 1350 1354 1358 1363 1367 1371 1374 1376 1379 1382 1385 1388 1391 1393 1395 1397 1400 1403 1404 1406 1408 1409 1411 1412 1414 1415 1417 1419 1421 1422 1424 1426 1427 1429 1431 1433 1436 1437 1439 1441
1351 1349 1347 1345 1344 1343 1342 1341 1340 1339 1337 1335 1333 1331 1330 1329 1328 1328 1327 1327 1326 1327 1327 1327 1327 1326 1326 1326 1326 1327 1327 1328 1328 1329 1331 1333 1334 1335 1337 1338 1339 1341 1342 1345 1347 1351 1355 1359 1363 1368 1371 1374 1376 1378 1381 1384 1387 1389 1392 1394 1396 1399 1401 1403 1405 1406 1407 1408 1409 1411 1413 1414 1416 1418 1420 1422 1424 1426 1427 1429 1431 1433 1435 1437 1438